Weather Roundup
Issued by NWS

Home | Current Version | Previous Version | Graphics & Text | Print | Product List | Glossary Off
Versions: 1 2 3 4 5 6 7 8 9 10 11 12 13 14 15 16 17 18 19 20 21 22 23 24 25 26 27 28 29 30 31 32 33 34 35 36 37 38 39 40 41 42 43 44 45 46 47 48 49 50

000
NZUS93 KARX 280310
HRRWXR

CURRENT HOURLY OBSERVATIONS ACROSS
MUCH OF THE UPPER MISSISSIPPI VALLEY
NATIONAL WEATHER SERVICE LA CROSSE WI
1000 PM CDT SAT AUG 27 2016


...SOUTHEAST MINNESOTA...


CITY           SKY/WX    TMP DP  RH WIND       PRES   REMARKS
ROCHESTER      MOCLDY    67  65  93 CALM      30.09R
ROCHESTER/MAYO CLOUDY    68  66  94 CALM      30.08R
WINONA         CLOUDY    68  66  94 CALM      30.07R
AUSTIN         CLOUDY    66  64  94 CALM      30.07R
ALBERT LEA     FOG       64  64 100 CALM      30.07R VSB 3/4
DODGE CENTER   CLOUDY    64  63  94 CALM      30.08R
PRESTON        CLOUDY    66  64  91 S3        30.09R
OWATONNA       CLOUDY    66  63  88 CALM      30.07R
FARIBAULT      FOG       61  59  94 CALM      30.06S VSB 1/2
$$

...ELSEWHERE IN MINNESOTA...


CITY           SKY/WX    TMP DP  RH WIND       PRES   REMARKS
MINNEAPOLIS    PTCLDY    65  61  87 CALM      30.06R
INTNL FALLS    MOCLDY    54  53  97 SE3       30.02S
DULUTH         CLOUDY    58  56  93 N6        30.06S
RED WING       FOG       64  64 100 CALM      30.05R VSB 1/4
REDWOOD FALLS  CLEAR     66  61  84 E3        30.04R
MANKATO        CLEAR     64  63  94 SE3       30.06R
WORTHINGTON    CLEAR     64  62  93 S6        30.06R
FAIRMONT       CLEAR     63  62  97 CALM      30.06R
$$

...SOUTHWEST WISCONSIN...


CITY           SKY/WX    TMP DP  RH WIND       PRES   REMARKS
LA CROSSE      MOCLDY    68  67  96 SE3       30.06R
PRAIRIE DU CHI CLEAR     66  64  94 CALM      30.07R
BOSCOBEL       FOG       64  63  96 CALM      30.08R VSB 1/4
LONE ROCK      MOCLDY    63  62  97 CALM      30.09R FOG
PLATTEVILLE    CLEAR     65  65 100 N5        30.09R
FORT MC COY    CLOUDY    64  64  99 CALM      30.09R
CAMP DOUGLAS   CLOUDY    65  65  99 SE1       30.08R
MAUSTON-NEW LI CLOUDY    65  65 100 CALM      30.08R FOG
VIROQUA        CLOUDY    65  65 100 CALM      30.09R VSB 1/4
WIS DELLS      CLOUDY    65  63  94 CALM      30.09R FOG
$$

...ELSEWHERE IN WISCONSIN...


CITY           SKY/WX    TMP DP  RH WIND       PRES   REMARKS
MILWAUKEE      MOCLDY    69  66  90 CALM      30.07R
MADISON        PTCLDY    66  65  96 CALM      30.08R FOG
GREEN BAY      CLOUDY    64  64 100 CALM      30.07R
EAU CLAIRE     CLOUDY    66  65  96 SW3       30.06R
BLACK RVR FLS  CLOUDY    65  65 100 CALM      30.07R FOG
MEDFORD        CLOUDY    62  62 100 S5        30.08S FOG
WAUSAU         CLOUDY    63  62  97 S7        30.07R FOG
WIS RAPIDS     CLOUDY    64  64 100 CALM      30.10R
MARSHFIELD     CLOUDY    64  62  93 S5        30.08R FOG
RICE LAKE      CLOUDY    64  62  94 CALM      30.08R FOG
$$

...NORTHEAST IOWA...


CITY           SKY/WX    TMP DP  RH WIND       PRES   REMARKS
WATERLOO       CLEAR     65  63  93 CALM      30.06R
DUBUQUE        CLEAR     68  66  93 CALM      30.09R
DECORAH        PTCLDY    66  66 100 CALM      30.08R FOG
MASON CITY     PTCLDY    66  65  96 CALM      30.08R
CHARLES CITY   CLEAR     66  66 100 SE6       30.08R
OELWEIN        CLEAR     64  63  94 SE6       30.08S FOG
$$

...ELSEWHERE IN IOWA...


CITY           SKY/WX    TMP DP  RH WIND       PRES   REMARKS
DES MOINES     MOCLDY    74  70  87 SE6       30.05R
IOWA CITY      PTCLDY    73  70  90 CALM      30.08R
FORT DODGE     CLEAR     68  64  88 CALM      30.07R
MARSHALLTOWN   CLEAR     66  65  96 E5        30.06R
CEDAR RAPIDS   CLEAR     71  69  93 CALM      30.06R
$$

...NORTHERN ILLINOIS...


CITY           SKY/WX    TMP DP  RH WIND       PRES   REMARKS
CHICAGO-OHARE  MOCLDY    77  70  79 SW3       30.08R
CHICAGO-MIDWAY MOCLDY    79  71  76 SW3       30.07R
MOLINE         CLOUDY    75  72  90 SE3       30.05R THUNDER
ROCKFORD       CLOUDY    75  69  81 CALM      30.09R
PEORIA         PTCLDY    77  74  90 SE6       30.08R
$$

NOTE: "FAIR" INDICATES FEW OR NO CLOUDS BELOW 12,000 FEET WITH NO
SIGNIFICANT WEATHER AND/OR OBSTRUCTIONS TO VISIBILITY. WIND
SPEEDS ARE IN MILES-PER-HOUR.




USA.gov is the U.S. government's official web portal to all federal, state and local government web resources and services.